Starlink 31472

operational
NORAD ID: 59730 Int'l Des: 2024-090 Owner: SPXS Country: US Constellation: starlink
LEOCIRCULAR

Starlink 31472について

説明を読み込み中...

リアルタイム位置

3D地球を読み込み中...

次回通過

高度履歴

Altitude vs Time

uPlot chart will show altitude changes over time

軌道要素

1 59730U 24090A 25259.26006177 -.00002690 00000-0 -88313-4 0 9997
2 59730 43.0048 88.5606 0001362 279.3255 80.7442 15.27565104 76760
Epoch: Sep 16, 2025 • Age: 9 hours

現在のステータス

高度 484.3 km
速度 7.62 km/s
衛星直下点 -8.15°S, 55.63°E
打ち上げ日 May 13, 2024
運用期間 1.3 years
タイプ internet

技術仕様

分類 Payload
質量 730.00 kg
乾燥質量 700.00 kg
総質量 730.00 kg
長さ 0.30 m
直径 4.10 m
スパン 29.00 m
形状 Box + pan
製造者 SPXS
バスタイプ Starlink V2M
フェーズステータス In Orbit
所有者/国 SPXS/US

大規模コンステレーション

Loading constellations...